This is the latest recevied weather packets stored in our database for station/object KD8PH. If no packets are shown the sender has not sent any weather packets the latest 10 day(s).
| Time | Temp. | Humidity | Pressure | Rain* | Wind** | Luminosity | Snow |
|---|---|---|---|---|---|---|---|
| 1777463140 | 18.33° C | 90% | 1012.2 hPa | 1.52 mm | - | - | - |
| 1777462544 | 18.33° C | 90% | 1012.4 hPa | 1.52 mm | - | - | - |
| 1777461935 | 18.33° C | 90% | 1012.6 hPa | 1.52 mm | - | - | - |
| 1777461343 | 18.33° C | 90% | 1012.5 hPa | 1.52 mm | - | - | - |
| 1777460737 | 18.33° C | 90% | 1012.5 hPa | 1.52 mm | - | - | - |
| 1777460138 | 18.33° C | 90% | 1012.4 hPa | 1.52 mm | - | - | - |
| 1777459537 | 18.33° C | 90% | 1012.5 hPa | 1.52 mm | - | - | - |
| 1777458935 | 18.33° C | 89% | 1012.2 hPa | 1.52 mm | - | - | - |
| 1777458340 | 18.33° C | 89% | 1012.7 hPa | 1.78 mm | - | - | - |
| 1777457737 | 18.33° C | 89% | 1012.7 hPa | 1.78 mm | - | - | - |
| 1777457145 | 18.89° C | 89% | 1013 hPa | 1.78 mm | - | - | - |
| 1777456540 | 18.33° C | 88% | 1013.1 hPa | 1.78 mm | - | - | - |
| 1777455938 | 18.33° C | 89% | 1013 hPa | 2.03 mm | - | - | - |
| 1777455337 | 18.33° C | 89% | 1012.6 hPa | 2.03 mm | - | - | - |
| 1777454735 | 18.33° C | 89% | 1012.5 hPa | 1.78 mm | - | - | - |
| 1777454142 | 18.33° C | 89% | 1012.3 hPa | 2.03 mm | - | - | - |
| 1777453536 | 18.33° C | 89% | 1012.2 hPa | 2.03 mm | - | - | - |
| 1777452943 | 18.33° C | 87% | 1011.5 hPa | 2.29 mm | - | - | - |
| 1777452338 | 18.89° C | 87% | 1010.6 hPa | 2.03 mm | - | - | - |
| 1777451744 | 18.89° C | 85% | 1009.8 hPa | 2.29 mm | - | - | - |
| 1777451138 | 18.33° C | 88% | 1009.5 hPa | 2.29 mm | - | - | - |
| 1777450538 | 18.33° C | 91% | 1010.2 hPa | 2.29 mm | - | - | - |
| 1777449959 | 18.33° C | 91% | 1011.8 hPa | 2.54 mm | - | - | - |
| 1777449339 | 17.78° C | 91% | 1013.3 hPa | 2.29 mm | - | - | - |
| 1777448737 | 18.33° C | 92% | 1013.6 hPa | 2.54 mm | - | - | - |
* Rain latest hour (hover to see other rain measurements)
** Current wind speed in m/s (hover to see current wind gust speed)